Regional Weather Roundup
Issued by NWS

Home | Current Version | Previous Version | Text Only | Print | Product List | Glossary Off
Versions: 1 2 3 4 5 6 7 8 9 10 11 12 13 14 15 16 17 18 19 20 21 22 23 24 25 26 27 28 29 30 31 32 33 34 35 36 37 38 39 40 41 42 43 44 45 46 47 48 49 50

000
ASUS43 KIND 011459
RWRIN

WEATHER ROUNDUP FOR INDIANA
NATIONAL WEATHER SERVICE INDIANAPOLIS IN
1100 AM EDT FRI AUG 01 2014

NOTE: "FAIR" INDICATES FEW OR NO CLOUDS BELOW 12,000 FEET WITH NO
SIGNIFICANT WEATHER AND/OR OBSTRUCTIONS TO VISIBILITY.

* - STATION DOES NOT REPORT WEATHER SUCH AS PRECIPITATION OR FOG.

+ - STATION NOT QUALITY CONTROLLED BY THE NATIONAL WEATHER SERVICE.
    USE DATA WITH CAUTION...ESPECIALLY DEWPOINT AND RELATIVE
    HUMIDITY OBSERVATIONS.

INZ001>003-010>013-019-020-011600-
NORTHWEST INDIANA

CITY           SKY/WX    TMP DP  RH WIND       PRES   REMARKS
GARY /AIRPORT/ PTSUNNY   72  64  78 CALM      30.10S
MONTICELLO +   PTSUNNY   73  63  68 CALM      30.11F
VALPARAISO     MOSUNNY   73  63  70 SW6       30.12R

$$

LMZ046-743>745-011600-
SOUTHERN LAKE MICHIGAN

STATION/POSITION TIME  TEMP WIND        PRES
                       AIR  DIR/SP/G
                 (UTC) (F)  (DEG/KT/KT) (MB)
MICHIGAN CITY    1400   71  220/  5/  6   N/A

$$

INZ004-005-014>016-021>024-011600-
NORTH CENTRAL INDIANA

CITY           SKY/WX    TMP DP  RH WIND       PRES   REMARKS
GOSHEN         SUNNY     75  64  68 SW5       30.12S
SOUTH BEND     SUNNY     77  62  59 W5        30.12R
WARSAW +       MOSUNNY   73  63  68 CALM      30.12S

$$

INZ006>009-017-018-025>027-011600-
NORTHEAST INDIANA

CITY           SKY/WX    TMP DP  RH WIND       PRES   REMARKS
ANGOLA *+      SUNNY     79  63  57 W5        30.12S
FORT WAYNE     MOSUNNY   74  62  66 W3        30.13F

$$

INZ028-029-035-036-043>045-051>053-011600-
WEST CENTRAL INDIANA

CITY           SKY/WX    TMP DP  RH WIND       PRES   REMARKS
GREENCASTLE +  SUNNY     73  63  68 S3        30.13S
LAFAYETTE      MOSUNNY   74  61  63 CALM      30.11F
TERRE HAUTE    SUNNY     77  64  64 S3        30.11S

$$

INZ030>032-037>040-046>048-054>057-064-065-011600-
CENTRAL INDIANA

CITY           SKY/WX    TMP DP  RH WIND       PRES   REMARKS
ANDERSON       SUNNY     75  59  57 CALM      30.15
COLUMBUS       SUNNY     75  64  69 CALM      30.13S
INDIANAPOLIS   MOSUNNY   76  61  59 CALM      30.12S
-EAGLE CREEK   SUNNY     76  61  59 CALM      30.12S
KOKOMO *+      MOSUNNY   75  63  64 NW3       30.13S
MT COMFORT *+  SUNNY     77  66  69 CALM      30.13R
SHELBYVILLE    SUNNY     79  63  57 CALM      30.12S

$$

INZ033-034-041-042-049-050-058-059-011600-
EAST CENTRAL INDIANA

CITY           SKY/WX    TMP DP  RH WIND       PRES   REMARKS
MUNCIE         SUNNY     77  60  55 CALM      30.14S

$$

INZ060-061-067>069-081>083-085>088-011600-
SOUTHWEST INDIANA

CITY           SKY/WX    TMP DP  RH WIND       PRES   REMARKS
EVANSVILLE     SUNNY     77  62  59 CALM      30.10S

$$

INZ062-063-066-070>080-084-089>092-011600-
SOUTH CENTRAL AND SOUTHEAST INDIANA

CITY           SKY/WX    TMP DP  RH WIND       PRES   REMARKS
BLOOMINGTON    SUNNY     79  61  53 CALM      30.12S

$$




USA.gov is the U.S. government's official web portal to all federal, state and local government web resources and services.